RH
87 92 97 100 100 100 100 87 83 97 94 94 88 78 92 92 90 88 85 85 89 91 95 97 96 96 96 98 99 93 90 90 88 88 86 77 53 76
66 99 100 99 97 100 95 94 82 80 91 91 92 93 90 92 90 93 91 89 90 88 85 87 88 90 92 93 97 91 87 85 81 65 48 29 22 76
54 98 83 96 100 99 97 93 84 85 85 85 93 100 94 95 96 94 89 84 84 89 91 90 93 91 88 90 86 81 72 64 42 20 10 9 20 46
73 100 95 98 100 98 96 94 86 89 87 86 96 100 99 87 82 82 85 89 90 91 94 90 88 88 84 82 80 68 28 12 9 7 7 11 18 34
90 99 100 99 100 100 99 97 93 91 91 90 91 84 84 85 87 87 92 88 88 86 83 86 86 82 71 37 15 10 8 7 8 15 26 31 32 31
98 99 99 100 98 100 100 97 93 91 89 86 87 85 86 86 90 92 87 88 88 81 77 62 28 12 10 9 7 7 9 15 27 32 31 30 32 34
99 98 99 99 100 96 98 92 90 90 90 88 87 86 87 89 89 85 88 81 62 24 14 12 9 8 7 8 10 14 26 31 30 31 34 35 34 33
97 99 99 99 96 96 92 91 94 90 89 89 88 89 86 82 78 66 42 19 23 20 12 9 8 9 11 24 29 32 30 30 32 34 34 34 36 37
96 95 94 93 93 95 95 95 92 90 87 84 80 63 33 16 11 12 13 13 15 20 13 11 16 25 31 34 31 31 31 31 30 31 31 35 36 32
98 95 98 95 96 98 94 90 88 82 58 24 12 9 8 9 10 12 12 13 15 15 14 23 39 37 36 34 31 32 31 29 29 32 33 36 39 38
99 97 97 98 97 90 76 36 17 9 6 6 6 7 8 9 10 11 12 15 21 30 30 40 39 37 37 34 33 32 32 33 37 38 41 42 42 42
99 99 98 92 74 27 10 6 6 6 7 8 8 9 10 11 12 12 13 15 21 52 39 44 39 40 37 36 36 35 35 37 37 40 46 52 52 50
96 91 68 22 11 7 6 7 8 8 8 8 9 10 12 12 13 15 16 18 28 42 37 42 41 43 44 40 38 40 42 45 50 56 57 56 54 54
65 27 13 10 8 8 8 8 8 8 8 10 11 12 12 12 14 16 18 27 37 42 43 44 48 50 52 50 44 47 49 53 57 56 58 60 60 62
15 12 10 10 9 9 9 8 8 9 10 11 12 11 12 13 15 18 24 36 41 44 47 50 51 55 59 61 56 49 51 50 59 63 66 64 64 64
12 11 10 9 10 11 10 9 9 11 11 12 12 12 14 15 16 19 28 38 42 45 49 53 56 60 63 65 64 53 56 63 60 62 66 64 63 68
9 9 10 10 11 13 11 10 10 11 11 10 11 12 14 15 17 19 26 34 40 43 48 53 57 61 64 66 61 54 58 58 62 64 64 65 63 66
10 11 11 10 12 13 12 11 11 10 10 11 12 12 14 14 16 15 14 18 24 31 40 52 60 58 56 50 46 36 40 46 53 56 64 76 65 62
16 13 9 9 11 13 12 12 12 12 12 12 13 13 14 15 16 16 17 18 19 21 24 29 31 37 52 39 30 37 40 42 44 51 67 75 79 63
18 16 12 9 9 12 12 11 12 13 14 14 14 15 16 16 17 18 20 22 23 24 25 28 32 39 48 48 44 34 41 46 54 64 72 76 73 69
16 16 15 14 10 10 9 11 13 12 13 15 16 16 17 18 19 21 22 24 24 26 28 31 37 50 53 46 47 43 50 60 75 82 79 79 71 68
18 16 15 15 16 14 10 10 10 11 12 13 14 16 17 19 21 23 24 26 27 30 32 37 42 45 47 50 53 59 64 69 72 74 77 77 81 92
20 18 17 16 16 16 16 15 11 10 10 12 13 14 15 17 20 23 25 27 29 33 39 46 54 60 62 65 70 77 78 72 70 68 67 72 71 68
Wind_Speed
28 27 27 26 26 26 23 20 19 14 15 19 18 19 17 17 17 17 16 14 15 16 16 18 19 21 22 24 25 23 23 23 22 20 18 17 15 11
29 27 24 26 26 27 23 21 18 16 18 18 20 18 18 17 18 16 15 15 15 15 16 17 19 20 20 20 21 19 19 18 17 17 17 18 16 12
29 26 26 26 26 33 23 21 20 18 20 20 21 20 20 18 16 16 14 17 18 17 17 17 18 19 18 16 16 16 16 16 18 19 19 19 18 16
22 25 28 27 24 24 23 22 21 19 19 21 19 18 18 17 17 17 16 17 16 14 13 13 13 15 17 18 17 15 16 18 19 19 18 16 15 12
18 22 22 25 28 25 21 21 20 18 18 17 16 17 18 16 16 15 14 12 12 12 13 17 17 17 17 17 16 17 18 18 16 13 11 10 11 12
18 21 21 19 22 18 20 18 18 16 16 18 17 16 16 14 13 13 13 12 14 12 14 15 15 17 17 17 16 16 15 11 10 10 11 12 12 13
19 22 21 23 20 20 18 16 16 17 17 15 16 14 14 12 12 13 11 13 14 12 15 17 16 15 15 14 13 11 9 10 11 11 12 14 15 16
18 17 18 18 17 16 17 17 15 14 14 14 14 13 12 12 12 13 13 12 10 14 14 12 13 11 10 8 7 9 10 11 12 14 16 16 16 15
16 16 17 16 17 17 16 15 13 12 12 11 12 13 13 13 14 13 13 13 12 17 12 9 9 6 6 8 9 10 11 13 15 16 15 14 15 17
13 13 13 13 13 12 11 12 12 12 12 12 14 13 14 13 12 13 12 12 11 12 9 5 7 6 8 10 10 12 13 14 11 9 12 15 18 19
12 12 12 12 12 12 10 10 10 11 10 12 13 13 13 12 11 11 11 10 7 7 6 6 8 8 9 11 14 12 12 11 11 11 16 20 23 23
13 12 13 13 12 11 11 10 11 10 9 10 10 9 9 8 8 9 9 8 8 6 8 9 8 7 6 10 11 10 10 13 17 20 20 20 25 27
13 13 13 12 11 10 10 10 9 8 8 8 8 7 8 7 7 8 7 8 9 10 9 8 10 10 11 14 14 14 14 15 17 18 20 22 24 26
12 12 12 11 10 9 9 8 8 8 7 7 7 7 7 7 7 7 7 8 9 11 13 13 14 14 15 17 17 16 17 17 19 19 19 15 16 21
13 12 12 11 10 9 8 7 7 7 7 7 7 6 7 7 7 8 10 11 12 13 14 15 15 16 17 19 21 20 23 22 21 15 22 24 22 23
14 13 12 11 10 9 8 7 7 7 7 7 7 7 7 8 9 10 11 12 13 13 15 15 16 17 18 19 22 23 21 24 24 24 25 26 25 23
14 14 13 12 11 10 9 9 9 8 7 8 8 8 8 8 9 10 11 13 14 15 15 16 16 17 18 20 24 23 24 24 24 25 25 27 24 27
15 15 14 13 13 12 11 10 10 9 9 9 9 9 9 9 10 11 11 13 14 15 15 16 17 18 20 19 19 19 19 22 22 21 23 26 29 24
18 17 17 15 14 14 13 12 11 11 11 11 11 11 11 11 12 12 13 13 14 14 14 15 16 17 19 22 21 19 20 21 25 26 25 25 29 28
22 21 19 17 17 16 15 15 14 14 14 14 14 13 13 13 13 13 14 15 15 15 17 16 17 17 19 20 24 23 21 24 23 25 26 24 25 27
24 23 21 20 20 19 18 17 17 17 17 17 16 16 15 15 15 15 16 16 17 17 18 17 16 17 21 23 28 27 23 22 23 25 25 26 28 28
27 26 24 23 22 22 21 20 20 20 20 19 19 18 17 18 17 17 18 18 19 19 19 18 18 19 21 23 26 27 26 22 19 19 19 19 22 27
28 28 27 26 26 26 25 25 24 23 22 22 21 20 20 20 19 19 19 20 20 20 20 20 20 20 22 23 25 27 27 24 22 22 20 16 17 21
Wind_Direction
265 260 258 263 261 257 250 254 260 261 274 275 275 279 270 276 272 269 274 274 259 256 258 260 259 261 266 268 271 274 279 278 278 280 280 281 279 282
259 259 257 256 259 253 250 249 252 267 262 270 278 274 272 269 271 271 268 266 265 264 266 270 267 266 270 270 270 273 276 277 276 278 279 278 277 278
262 256 261 247 249 270 245 248 253 262 271 275 271 266 268 266 264 268 272 275 271 267 268 264 262 268 272 274 276 279 282 279 280 279 281 280 278 277
257 248 250 253 236 257 250 246 257 258 268 265 264 260 257 258 264 267 271 275 268 271 266 269 276 274 281 283 283 282 280 279 280 281 280 277 277 281
249 246 246 252 249 233 241 251 257 258 258 253 252 258 257 254 258 264 267 266 267 263 270 274 279 280 279 279 281 280 280 281 279 275 269 269 275 279
245 237 244 247 254 252 250 253 256 247 245 251 250 248 244 244 251 257 258 264 269 269 274 276 279 279 280 281 281 280 277 268 260 261 267 273 278 280
247 248 247 250 247 250 250 249 244 243 241 240 242 240 242 237 247 254 256 268 278 278 276 279 279 278 279 277 273 264 256 256 260 265 271 277 280 283
249 247 249 243 244 246 248 245 240 237 235 230 237 240 241 246 252 254 257 264 268 278 277 279 282 278 274 266 260 260 259 262 268 275 278 280 281 280
242 242 242 245 243 238 229 227 227 228 226 229 232 235 248 254 259 260 261 263 259 268 284 281 276 256 257 261 263 265 268 275 276 275 277 276 278 282
227 228 226 232 226 220 216 213 220 226 226 235 242 252 260 260 258 259 260 260 261 267 271 250 253 246 259 272 272 274 277 278 270 265 274 282 289 292
222 223 227 222 218 213 213 216 224 233 241 246 253 258 259 258 258 255 251 247 242 262 236 237 255 265 269 273 279 276 271 257 249 285 288 291 294 291
224 219 214 209 210 212 223 232 242 247 251 254 254 255 255 251 251 250 246 239 226 231 249 251 260 279 278 270 272 278 273 260 265 286 291 292 293 292
213 207 209 211 219 229 236 241 249 253 255 253 254 252 254 253 248 247 242 235 229 231 255 267 280 279 274 277 281 282 279 274 278 283 289 289 288 288
212 212 219 221 228 241 245 241 247 252 242 242 244 249 252 258 255 253 248 242 245 257 275 278 279 285 285 288 292 290 294 297 298 297 296 295 292 289
217 223 227 232 237 238 241 240 239 236 238 243 249 254 255 258 262 253 251 252 258 260 263 269 276 279 281 286 293 299 302 305 308 308 305 301 299 298
226 228 233 238 238 242 238 240 236 236 243 247 255 258 259 262 262 265 264 263 264 266 267 269 271 274 279 285 290 296 300 302 303 304 303 302 305 302
231 233 235 236 238 240 241 241 241 245 250 252 254 261 268 271 272 274 272 273 274 277 277 277 275 276 280 284 287 296 300 297 301 304 303 302 301 304
234 237 239 242 243 244 244 245 247 249 251 253 255 259 264 271 277 283 281 279 280 282 283 284 284 285 286 285 290 300 296 299 301 301 302 302 302 305
240 243 246 247 248 248 250 253 254 254 256 255 256 260 264 268 272 282 286 287 290 291 292 291 290 287 287 291 302 298 303 306 307 305 306 305 302 306
243 246 249 251 252 252 254 255 256 259 260 259 259 261 264 269 273 279 281 283 287 289 288 288 287 288 285 294 294 301 297 299 300 299 302 301 298 300
250 252 254 254 255 256 257 257 258 260 261 261 262 263 264 268 273 276 278 280 284 283 285 288 291 285 283 290 292 305 308 308 306 304 306 305 308 308
252 255 255 256 256 258 258 258 258 259 262 263 263 264 265 267 271 274 276 279 279 282 287 288 287 286 285 289 296 301 306 308 308 302 295 294 294 291
258 260 259 260 258 258 258 258 259 260 261 263 264 264 265 268 270 271 275 278 280 282 284 285 286 286 289 291 295 299 304 310 314 313 310 310 303 300